sat.trackr.live / text

‹ back to catalog

COSMOS 2526

NORAD 43432 · 2018-037A

PAYLOAD ACTIVE UNKNOWN

§ Identity

Operator
Country
CIS
Launch date
2018-04-18
Launch site
TYMSC
Launch vehicle
Mass (kg)
RCS (m²)

Purposes: comms

External: N2YO · Heavens-Above · Gunter

§ Orbital elements

Epoch: 2026-05-25T04:20:58.776576Z

Period
1,436.08 min
Inclination
0.0101°
Eccentricity
0.0000477
Mean motion
1.00272927 rev/d
Perigee alt
35,784.3 km
Apogee alt
35,788.3 km
Semi-major
42,164.4 km
B*
0.0000e+0
RAAN
11.7715°
Arg perigee
204.1630°
Mean anomaly
220.1369°
Rev number
2,972

§ Raw data

COSMOS 25261 43432U 18037A   26145.18123584 -.00000347  00000+0  00000+0 0  99982 43432   0.0101  11.7715 0000477 204.1630 220.1369  1.00272927 29729

JSON: /api/v1/satellites/43432 · /tle

For live sub-satellite position, see the globe view (requires WebGL).

§ Visibility from observer

Set your observer location to see the next 7 days of passes ≥ 10°. The values pass through the URL so the page stays shareable.

No JS? Fill the form by hand. The geolocation button needs JavaScript.